Location: ?p Thanh B�nh
(16.5833°N, 107.5333°E)
Time: 09:09:45
(UTC+00:00)

Meteor 2-5 Rocket - Pass Details

Date: 29 October 2020
Orbit: 834 x 911 km, 81.2° (Epoch: 23 November)

Event Time Altitude Azimuth Distance (km) Brightness Sun altitude
Rises 21:10:06 0° 198° (SSW) 3,392 6.7 -23.6°
Reaches altitude 10° 21:12:35 10° 204° (SSW) 2,467 6.0 -23.0°
Maximum altitude 21:17:56 47° 277° (W) 1,122 3.9 -21.7°
Drops below altitude 10° 21:23:25 10° 351° (N) 2,520 6.0 -20.4°
Sets 21:25:59 0° 357° (N) 3,471 6.8 -19.8°
